TimePDT,TemperatureF,Dew PointF,Humidity,Sea Level PressureIn,VisibilityMPH,Wind Direction,Wind SpeedMPH,Gust SpeedMPH,PrecipitationIn,Events,Conditions,WindDirDegrees,DateUTC
12:15 AM,53.6,48.2,82,29.99,10.0,ESE,6.9,-,N/A,,Mostly Cloudy,120,2012-10-29 07:15:00
12:35 AM,53.6,48.2,82,29.99,10.0,SE,4.6,-,N/A,,Mostly Cloudy,130,2012-10-29 07:35:00
12:55 AM,53.6,48.2,82,29.99,10.0,SSE,4.6,-,N/A,,Overcast,160,2012-10-29 07:55:00
1:15 AM,59.0,46.4,63,29.99,10.0,SSW,11.5,16.1,N/A,,Mostly Cloudy,210,2012-10-29 08:15:00
1:35 AM,57.2,46.4,67,29.97,10.0,ESE,4.6,10.4,N/A,,Mostly Cloudy,120,2012-10-29 08:35:00
1:55 AM,53.6,48.2,82,29.97,10.0,NW,3.5,-,N/A,,Mostly Cloudy,310,2012-10-29 08:55:00
2:15 AM,55.4,46.4,72,29.98,10.0,SW,6.9,-,N/A,,Overcast,230,2012-10-29 09:15:00
2:55 AM,57.2,46.4,67,29.99,10.0,South,15.0,-,N/A,Rain,Light Rain,190,2012-10-29 09:55:00
3:55 AM,55.4,44.6,67,29.99,10.0,SW,15.0,-,N/A,,Scattered Clouds,220,2012-10-29 10:55:00
4:15 AM,55.4,44.6,67,29.99,10.0,SW,12.7,-,N/A,,Scattered Clouds,220,2012-10-29 11:15:00
4:35 AM,55.4,42.8,63,30.00,10.0,SSW,15.0,21.9,N/A,,Scattered Clouds,210,2012-10-29 11:35:00
4:55 AM,55.4,44.6,67,30.00,10.0,SW,8.1,-,N/A,,Scattered Clouds,220,2012-10-29 11:55:00
5:15 AM,57.2,42.8,59,30.00,10.0,SSW,17.3,23.0,N/A,,Scattered Clouds,200,2012-10-29 12:15:00
5:35 AM,55.4,42.8,63,30.01,10.0,South,10.4,-,N/A,,Scattered Clouds,190,2012-10-29 12:35:00
5:55 AM,55.4,42.8,63,30.01,10.0,SSW,15.0,20.7,N/A,,Scattered Clouds,200,2012-10-29 12:55:00
6:15 AM,53.6,42.8,67,30.02,10.0,SW,8.1,-,N/A,,Mostly Cloudy,220,2012-10-29 13:15:00
6:35 AM,55.4,42.8,63,30.01,10.0,SSW,15.0,-,N/A,,Mostly Cloudy,210,2012-10-29 13:35:00
6:55 AM,55.4,42.8,63,30.02,10.0,SW,12.7,-,N/A,,Scattered Clouds,220,2012-10-29 13:55:00
7:15 AM,53.6,41.0,62,30.03,10.0,SW,12.7,-,N/A,,Clear,220,2012-10-29 14:15:00
7:35 AM,53.6,41.0,62,30.04,10.0,SSW,12.7,17.3,N/A,,Clear,200,2012-10-29 14:35:00
7:55 AM,53.6,41.0,62,30.04,10.0,South,18.4,23.0,N/A,,Clear,190,2012-10-29 14:55:00
8:15 AM,55.4,42.8,63,30.05,10.0,SSW,16.1,21.9,N/A,,Scattered Clouds,200,2012-10-29 15:15:00
8:35 AM,55.4,42.8,63,30.06,10.0,South,16.1,24.2,N/A,,Scattered Clouds,190,2012-10-29 15:35:00
8:55 AM,55.4,42.8,63,30.06,10.0,SSW,11.5,16.1,N/A,,Clear,200,2012-10-29 15:55:00
9:15 AM,57.2,42.8,59,30.07,10.0,SSW,11.5,-,N/A,,Scattered Clouds,200,2012-10-29 16:15:00
9:35 AM,57.2,42.8,59,30.07,10.0,SSW,18.4,-,N/A,,Scattered Clouds,210,2012-10-29 16:35:00
9:55 AM,57.2,42.8,59,30.09,10.0,SSW,13.8,-,N/A,,Mostly Cloudy,200,2012-10-29 16:55:00
10:15 AM,57.2,42.8,59,30.08,10.0,South,11.5,-,N/A,,Overcast,190,2012-10-29 17:15:00
10:55 AM,57.2,42.8,59,30.09,10.0,South,9.2,-,N/A,,Overcast,190,2012-10-29 17:55:00
11:15 AM,59.0,44.6,59,30.09,10.0,WSW,9.2,-,N/A,,Overcast,240,2012-10-29 18:15:00
11:35 AM,57.2,44.6,63,30.10,10.0,WNW,6.9,-,N/A,Rain,Light Rain,300,2012-10-29 18:35:00
11:55 AM,57.2,44.6,63,30.10,10.0,NW,5.8,-,N/A,,Overcast,310,2012-10-29 18:55:00
12:15 PM,55.4,44.6,67,30.11,10.0,NW,5.8,-,N/A,,Overcast,320,2012-10-29 19:15:00
12:35 PM,53.6,48.2,82,30.12,7.0,Calm,Calm,-,N/A,,Drizzle,0,2012-10-29 19:35:00
1:15 PM,53.6,50.0,88,30.12,10.0,SSW,4.6,-,N/A,Rain,Light Rain,200,2012-10-29 20:15:00
1:35 PM,53.6,50.0,88,30.12,10.0,Calm,Calm,-,N/A,Rain,Light Rain,0,2012-10-29 20:35:00
1:55 PM,53.6,50.0,88,30.12,10.0,Calm,Calm,-,N/A,,Overcast,0,2012-10-29 20:55:00
2:15 PM,53.6,50.0,88,30.12,10.0,ENE,3.5,-,N/A,,Overcast,70,2012-10-29 21:15:00
2:35 PM,55.4,50.0,82,30.11,10.0,Calm,Calm,-,N/A,,Scattered Clouds,0,2012-10-29 21:35:00
2:55 PM,57.2,48.2,72,30.11,10.0,ENE,3.5,-,N/A,,Clear,70,2012-10-29 21:55:00
3:15 PM,55.4,48.2,77,30.11,10.0,NE,4.6,-,N/A,,Scattered Clouds,50,2012-10-29 22:15:00
3:35 PM,55.4,48.2,77,30.11,10.0,East,6.9,-,N/A,,Mostly Cloudy,90,2012-10-29 22:35:00
3:55 PM,55.4,50.0,82,30.12,10.0,ENE,6.9,-,N/A,,Mostly Cloudy,70,2012-10-29 22:55:00
4:15 PM,55.4,48.2,77,30.12,10.0,East,6.9,-,N/A,,Scattered Clouds,100,2012-10-29 23:15:00
4:35 PM,55.4,48.2,77,30.12,10.0,East,5.8,-,N/A,,Mostly Cloudy,90,2012-10-29 23:35:00
4:55 PM,55.4,48.2,77,30.12,10.0,ENE,4.6,-,N/A,,Overcast,70,2012-10-29 23:55:00
5:15 PM,55.4,48.2,77,30.12,10.0,East,6.9,-,N/A,,Overcast,100,2012-10-30 00:15:00
5:35 PM,53.6,48.2,82,30.12,10.0,East,6.9,-,N/A,,Overcast,80,2012-10-30 00:35:00
5:55 PM,53.6,48.2,82,30.12,10.0,East,6.9,-,N/A,,Overcast,80,2012-10-30 00:55:00
8:35 PM,50.0,46.4,87,30.13,10.0,East,8.1,-,N/A,,Mostly Cloudy,100,2012-10-30 03:35:00
8:55 PM,51.8,46.4,82,30.12,10.0,ESE,8.1,-,N/A,,Overcast,110,2012-10-30 03:55:00
9:15 PM,50.0,46.4,87,30.12,10.0,East,10.4,-,N/A,,Scattered Clouds,90,2012-10-30 04:15:00
9:35 PM,50.0,46.4,87,30.13,10.0,East,10.4,-,N/A,,Clear,100,2012-10-30 04:35:00
9:55 PM,50.0,44.6,82,30.12,10.0,ESE,12.7,-,N/A,,Clear,110,2012-10-30 04:55:00
10:15 PM,50.0,44.6,82,30.12,10.0,ESE,9.2,-,N/A,,Clear,110,2012-10-30 05:15:00
10:35 PM,48.2,44.6,87,30.12,10.0,ESE,10.4,-,N/A,,Clear,110,2012-10-30 05:35:00
10:55 PM,46.4,44.6,93,30.11,10.0,ESE,9.2,-,N/A,,Clear,110,2012-10-30 05:55:00
11:15 PM,46.4,42.8,87,30.11,10.0,East,10.4,-,N/A,,Clear,100,2012-10-30 06:15:00
11:35 PM,50.0,44.6,82,30.11,10.0,ESE,10.4,-,N/A,,Clear,110,2012-10-30 06:35:00
11:55 PM,46.4,44.6,93,30.11,10.0,East,9.2,-,N/A,,Clear,80,2012-10-30 06:55:00